User: anonymous   Login
Location: Vancouver
(49.2500°N, 123.1330°W)
Time: 14:40:02
(UTC-07:00)
Language:

Cosmos 2333 Rocket - Orbit

View from above orbital plane
View from above orbital plane
View from above satellite
View from above satellite

Ground track
Ground track

The orbit data is extracted from the following two-line orbital elements,

1 24298U 96051B   16119.71572223  .00000032  00000-0  43396-4 0  9997
2 24298  70.8357 215.7459 0012676  82.4866 277.7694 14.12395308 13299
Epoch (UTC): 28 April 2016 17:10:38
Eccentricity: 0.0012676
inclination: 70.8357°
perigee height: 842 km
apogee height: 860 km
right ascension of ascending node: 215.7459°
argument of perigee: 82.4866°
revolutions per day: 14.12395308
mean anomaly at epoch: 277.7694°
orbit number at epoch: 1329

The dashed part of the orbit path shows where the satellite is in the earth's shadow,  

DLR